Date,Temperature_reference_channel,Lux_reference_channel,Temperature_manipulated_channel,Lux_manipulated_channel,Precipitation
2018-04-01,0,0,0.01,32.3,0
2018-04-02,0,0,0.01,38.15,0
2018-04-03,0,0,0.01,43.1,0.762
2018-04-04,0,0,0.01,43.1,6.604
2018-04-05,0.232,68.62083333,0.01,43.1,0
2018-04-06,0,0,0.01,43.1,0
2018-04-07,0,0,0.01,43.1,0
2018-04-08,0.343,12805.975,0.01,43.1,0
2018-04-09,0.375083333,12646.3125,0.01,43.1,4.572
2018-04-10,0.453,19366.15417,0.01,43.1,0.508
2018-04-11,0.6,40989.15417,0.01,43.1,15.494
2018-04-12,0.674,44376.24167,0.01,43.1,20.574
2018-04-13,0.674,22858.15417,0.01,43.1,0.254
2018-04-14,0.678863636,14535.39167,0.01,43.1,0
2018-04-15,0.815791667,45696.63333,0.01,44.88333333,1.27
2018-04-16,0.98,43113.25833,0.01,52.4625,0.508
2018-04-17,1.147916667,42079.90833,0.01,53.8,0
2018-04-18,1.867208333,38118.75417,0.01,53.8,0
2018-04-19,2.351666667,37487.2625,0.01,53.8,0
2018-04-20,2.730083333,33468.75833,0.060875,91.9375,0
2018-04-21,3.018083333,31115.01667,2.896291667,26456.45833,0
2018-04-22,2.619166667,27957.5625,2.90275,25890.95833,0
2018-04-23,2.645708333,25833.55,2.17625,21614.0375,0
2018-04-24,2.783458333,25833.55,1.911416667,19920.49167,0
2018-04-25,3.071041667,24972.425,2.759833333,19834.37917,0
2018-04-26,3.181291667,24685.38333,2.950083333,19633.45,0
2018-04-27,3.2695,24627.975,3.193541667,20178.82917,0
2018-04-28,3.379625,24800.2,3.40875,21011.25,5.588
2018-04-29,3.348083333,24168.70833,3.336625,20121.42083,1.524
2018-04-30,3.185291667,23020.54167,2.928875,19461.225,0.254
2018-05-01,3.475583333,25546.50833,3.603458333,22302.9375,0.508
2018-05-02,3.516083333,26178,3.782666667,24340.93333,8.636
2018-05-03,3.691,26981.65833,4.179083333,25374.28333,0.254
2018-05-04,3.634291667,26866.85,4.11425,25431.69167,0.254
2018-05-05,3.790791667,26752.04167,4.376458333,25374.27917,0
2018-05-06,3.89,26350.2,4.46725,24685.375,0
2018-05-07,3.834708333,25431.69167,4.361916667,23077.95,0
2018-05-08,4.053173913,25099.72174,4.666208333,22676.09167,0
2018-05-09,3.865041667,24168.70833,4.253291667,21958.4875,0
2018-05-10,3.883041667,24226.11667,4.164708333,22848.31667,0
2018-05-11,4.082666667,24972.425,4.350916667,23881.66667,0
2018-05-12,4.079416667,25316.875,4.279083333,24168.70833,0
2018-05-13,4.066791667,25833.55,4.245,24513.15833,2.032
2018-05-14,4.049375,25948.36667,4.1885,24513.15833,4.318
2018-05-15,3.904875,26120.59167,4.065666667,24685.38333,0.254
2018-05-16,4.131125,26924.25417,4.291125,25546.50833,0.508
2018-05-17,4.096666667,28014.96667,4.2225,25661.325,1.016
2018-05-18,4.374416667,28359.41667,4.497541667,26694.65,0.508
2018-05-19,4.331375,28244.6,4.378416667,26407.61667,0.254
2018-05-20,4.253625,28416.825,4.30525,26465.02083,1.016
2018-05-21,4.433458333,28646.45833,4.49275,26522.41667,0
2018-05-22,4.253291667,28302.00833,4.252791667,25718.73333,0.254
2018-05-23,4.611125,28876.09167,4.622583333,26350.2,0
2018-05-24,4.726,28302.00833,4.681583333,26005.74583,0
2018-05-25,4.588541667,27555.71667,4.453583333,25259.46667,0
2018-05-26,4.752333333,26522.425,4.867458333,24627.975,4.826
2018-05-27,4.711375,24742.79167,5.284791667,21054.31667,19.812
2018-05-28,4.470333333,22302.9375,5.196375,16260.74167,1.27
2018-05-29,4.693166667,22733.5,6.02625,17911.22083,0
2018-05-30,4.431083333,22159.41667,5.256458333,18112.13333,2.032
2018-05-31,4.464434783,22044.6,5.103458333,19375.1125,0
2018-06-01,4.6645,22618.68333,5.198875,20322.35,0
2018-06-02,4.815208333,22790.90833,4.916875,21355.7,0
2018-06-03,4.870333333,23996.48333,4.868958333,21786.2625,0.254
2018-06-04,4.656875,24168.70833,4.621458333,22044.6,0.508
2018-06-05,4.785791667,24742.79167,5.801208333,23250.175,1.016
2018-06-06,4.867583333,24800.2,12.81479167,10911.975,0
2018-06-07,4.786458333,24800.2,12.628,6855.295833,0.762
2018-06-08,4.8035,24972.425,12.94575,3299.6,0
2018-06-09,4.845541667,25259.46667,13.90729167,1.795833333,0
2018-06-10,4.815833333,25546.50833,13.77295833,0,2.286
2018-06-11,4.700416667,25546.50833,9.259791667,3506.8125,1.778
2018-06-12,4.743833333,26005.775,10.7045,1169.6875,20.066
2018-06-13,4.631375,24800.2,8.289166667,15950.85833,0
2018-06-14,4.781208333,24800.2,11.448375,10855.45417,0
2018-06-15,4.737875,24398.34167,11.04141667,10034.69583,0
2018-06-16,4.862625,24915.01667,12.89933333,7740.633333,0
2018-06-17,4.906166667,25546.50833,13.44616667,2432.208333,0
2018-06-18,4.936083333,26350.2125,12.56458333,41.26666667,0
2018-06-19,4.982,27326.10833,13.68775,57.40833333,0
2018-06-20,4.893,28302.00833,12.24008333,2692.333333,0.508
2018-06-21,5.005166667,29048.31667,14.15120833,175.8125,0
2018-06-22,4.940291667,28818.68333,12.24091667,250.7125,0
2018-06-23,4.705958333,28416.825,9.898833333,3509.045833,0
2018-06-24,4.626375,28933.5,8.63075,11118.71667,2.286
2018-06-25,4.827916667,29679.80833,10.213875,7601.6125,0
2018-06-26,4.877083333,31229.83333,10.80266667,5934.533333,0
2018-06-27,4.92925,32550.225,11.251375,21.52916667,0.254
2018-06-28,4.5225,32607.63333,7.774666667,3.141666667,0
2018-06-29,4.895208333,33353.94167,11.91854167,13.44583333,0
2018-06-30,4.990791667,33813.20833,13.076375,0,0
2018-07-01,5.305416667,34846.54583,16.24733333,0,0
2018-07-02,5.295125,35305.8125,16.204125,0,1.2
2018-07-03,5.084666667,35018.77083,12.81429167,0,0
2018-07-04,4.987458333,34961.375,11.81216667,1576.020833,11.8
2018-07-05,4.992916667,35133.59583,11.42520833,4008.225,2.9
2018-07-06,4.988458333,34559.51667,13.2985,0,0
2018-07-07,4.978375,33813.20833,14.175125,0,0
2018-07-08,5.065833333,33985.43333,14.87795833,0,0
2018-07-09,5.139041667,34559.50833,15.95670833,0,0
2018-07-10,4.927541667,35133.6,13.94125,0,2.6
2018-07-11,5.250458333,35879.875,16.118375,0,0
2018-07-12,5.195583333,36683.57083,14.785125,0,1.3
2018-07-13,5.334,37659.48333,16.59979167,0,0.9
2018-07-14,5.23525,37946.50833,15.34754167,0,2.9
2018-07-15,5.215333333,38463.18333,14.79666667,0,7.3
2018-07-16,5.302,39094.675,14.63070833,8.525,0
2018-07-17,5.239833333,39094.675,15.02541667,0,0
2018-07-18,5.416708333,39553.94167,16.421,0,0
2018-07-19,5.600666667,40013.20833,17.326125,0,0
2018-07-20,5.634625,40357.65833,16.64183333,4.0375,41.8
2018-07-21,4.769833333,31861.31667,10.467625,6597.408333,7.9
2018-07-22,4.747416667,30770.56667,13.11725,5.841666667,0
2018-07-23,4.75225,28933.5,12.96479167,0,0
2018-07-24,4.846,29105.725,14.05816667,0,0
2018-07-25,4.842333333,30139.075,14.49529167,0,0
2018-07-26,5.0685,32378,16.76729167,0,0
2018-07-27,5.085458333,33526.16667,17.25429167,0,0
2018-07-28,4.872583333,33870.61667,13.25154167,0,0
2018-07-29,5.190375,35592.8375,15.82641667,0,0
2018-07-30,5.1665,36626.1625,15.648875,0,0
2018-07-31,5.285291667,37372.4375,17.03820833,0,0
2018-08-01,5.373083333,37659.46667,17.76466667,9.4125,15.1
2018-08-02,5.164958333,37659.47083,15.37616667,23.775,2.2
2018-08-03,5.074416667,36913.17917,15.7745,0,0
2018-08-04,5.206541667,36166.925,16.309875,0.9,0.4
2018-08-05,5.265166667,35592.84583,17.89933333,0.45,0
2018-08-06,5.266375,35248.40417,17.735625,0.45,10
2018-08-07,5.272217391,35522.96087,16.41275,0,0
2018-08-08,5.234791667,35363.21667,17.03833333,0,0
2018-08-09,5.286916667,35190.99167,16.31591667,0,6.5
2018-08-10,5.091875,35191.00417,15.52920833,0,0
2018-08-11,5.235333333,35592.84583,16.62783333,0,0
2018-08-12,4.859375,35133.6,13.14604167,0,2.3
2018-08-13,4.803,36224.32917,10.83845833,0,10.9
2018-08-14,4.954166667,36626.15833,11.50975,0,0.9
2018-08-15,5.201041667,37429.8375,14.54183333,0,0
2018-08-16,5.089541667,37602.0625,13.93033333,0,0
2018-08-17,5.321541667,37946.50833,15.740625,0,3.8
2018-08-18,5.414833333,38290.95833,14.53491667,0,7.9
2018-08-19,5.210666667,38750.225,13.09,0,6.1
2018-08-20,5.104333333,38405.775,12.77283333,0,2
2018-08-21,5.094708333,37946.50833,12.93558333,0,0
2018-08-22,5.173291667,38118.73333,13.29683333,0,5.2
2018-08-23,5.079166667,38118.73333,12.649125,0,0
2018-08-24,5.164291667,37831.69167,12.63095833,0,3.1
2018-08-25,4.98025,37487.24167,11.34179167,3.1375,10.8
2018-08-26,4.753875,37429.8375,8.915208333,0,0
2018-08-27,4.874,36913.19167,11.375375,0,0
2018-08-28,4.990041667,36683.575,12.36795833,0,0
2018-08-29,5.029541667,36740.97917,13.50104167,0,0
2018-08-30,5.249625,37487.24167,14.711375,0,14.2
2018-08-31,4.748541667,36339.125,9.405708333,44.83333333,46.8
2018-09-01,4.401833333,32148.3625,6.100541667,43.525,10.9
2018-09-02,4.506,31000.2,7.169541667,14604.46667,0
2018-09-03,4.881583333,30426.11667,8.517458333,23479.80833,4.7
2018-09-04,4.980791667,29450.175,8.959833333,23910.3625,2
2018-09-05,5.028333333,28990.90833,8.885333333,24398.34167,2.6
2018-09-06,5.071208333,28933.5,10.99933333,5943.9625,12.6
2018-09-07,5.063125,29564.99167,10.0405,4205.566667,0
2018-09-08,4.96775,30081.66667,9.773041667,0,0
2018-09-09,4.94175,30426.11667,8.551833333,0,0
2018-09-10,4.972,32263.18333,10.40325,0,0
2018-09-11,4.907041667,33181.71667,10.88391667,0,0
2018-09-12,4.919666667,33813.20833,11.49791667,0,0
2018-09-13,4.959,34444.7,11.78245833,0,7.6
2018-09-14,4.950791667,35018.78333,11.85975,0,0
2018-09-15,4.945583333,35420.63333,11.99795833,0,0
2018-09-16,4.821083333,36166.92083,10.61416667,0,0
2018-09-17,4.932208333,36511.35,12.01691667,0,0
2018-09-18,4.916416667,37142.79583,11.46079167,0,1.5
2018-09-19,4.884833333,37315.02083,9.924791667,7.625,0
2018-09-20,4.88825,38003.91667,6.246333333,16246.40833,0
2018-09-21,4.991041667,39094.675,5.308458333,35994.6875,0
2018-09-22,5.284541667,39496.53333,5.65525,36913.2,0
2018-09-23,5.584041667,40587.29167,6.127333333,38118.73333,4.2
2018-09-24,4.922916667,40185.43333,4.948083333,37142.825,0
2018-09-25,4.142,39668.75833,4.075,36740.9875,0
2018-09-26,4.223708333,40415.06667,4.276541667,37602.1,0
2018-09-27,4.536541667,41448.41667,4.717083333,38750.225,0
2018-09-28,4.554125,41046.55833,4.708375,38922.45,0
2018-09-29,4.736166667,41792.86667,4.938458333,39496.53333,0
2018-09-30,4.55,41965.09167,4.730291667,39726.16667,2.5
2018-10-01,4.2885,41391.00833,3.95125,38578,10.7
2018-10-02,4.086125,41735.45833,4.123541667,39553.94167,0
2018-10-03,4.502333333,42711.4,4.699541667,40587.29167,0
2018-10-04,4.207208333,42941.03333,4.293875,40644.7,0
2018-10-05,4.285291667,42998.44167,4.45,40816.925,0
2018-10-06,4.733166667,43285.48333,4.906166667,41563.23333,0
2018-10-07,4.767625,43285.48333,5.054666667,41620.64167,0
2018-10-08,4.72325,43400.3,5.068375,42022.5,0
2018-10-09,4.468416667,43687.34167,4.629041667,42079.90833,0
2018-10-10,4.503083333,43974.38333,4.664041667,42539.175,0
2018-10-11,4.682541667,44663.28333,4.729791667,43170.66667,0
2018-10-12,4.6,44778.1,4.8,43457.7,0
2018-10-13,NA,NA,NA,NA,0
2018-10-14,NA,NA,NA,NA,0.7
2018-10-15,NA,NA,NA,NA,0
2018-10-16,NA,NA,NA,NA,0
2018-10-17,NA,NA,NA,NA,0
2018-10-18,NA,NA,NA,NA,0
2018-10-19,NA,NA,NA,NA,0
2018-10-20,NA,NA,NA,NA,0
2018-10-21,NA,NA,NA,NA,0
2018-10-22,NA,NA,NA,NA,0
2018-10-23,NA,NA,NA,NA,0
2018-10-24,NA,NA,NA,NA,0
2018-10-25,NA,NA,NA,NA,0
2018-10-26,NA,NA,NA,NA,0
2018-10-27,3.161416667,44433.65,2.631458333,41735.46667,0
2018-10-28,0.819375,35650.22917,0.125625,32607.625,0
2018-10-29,2.44275,34903.91667,1.773125,31402.05833,0
2018-10-30,2.908791667,31287.24167,2.032791667,27383.525,0
2018-10-31,3.713166667,36224.30833,3.432208333,33698.39167,0
2018-11-01,3.594833333,37429.8375,3.291291667,35707.65833,0
2018-11-02,3.892708333,38692.81667,3.647375,37659.46667,0
2018-11-03,3.870916667,39553.94167,3.60775,38520.59167,0
2018-11-04,3.918791667,40070.61667,3.67325,38578,0
2018-11-05,3.992958333,39324.30833,3.760791667,37889.1,0
2018-11-06,4.001666667,38692.81667,3.756291667,37200.2,0
2018-11-07,4.040666667,38578,3.821583333,37085.39167,0
2018-11-08,4.010541667,38578,3.77875,37085.39167,0
2018-11-09,3.971166667,38578,3.769625,37085.39167,0
2018-11-10,3.905833333,38578,3.682208333,37200.2,0
2018-11-11,4.032333333,38979.85833,3.822291667,37716.875,0
2018-11-12,3.866375,39726.16667,3.602583333,37946.50833,0
2018-11-13,3.695416667,39668.75833,3.351625,37716.875,0
2018-11-14,3.361833333,38807.63333,2.9105,37429.83333,0
2018-11-15,3.203125,38578,2.732958333,37027.9875,0
2018-11-16,3.291375,38463.18333,2.9505,37027.9875,0
